Regional Weather Roundup
Issued by NWS

Home | Current Version | Previous Version | Text Only | Print | Product List | Glossary On
Versions: 1 2 3 4 5 6 7 8 9 10 11 12 13 14 15 16 17 18 19 20 21 22 23 24 25 26 27 28 29 30 31 32 33 34 35 36 37 38 39 40 41 42 43 44 45 46 47 48 49 50
000
ASUS43 KBIS 211820
RWRND

NORTH DAKOTA REGIONAL WEATHER ROUNDUP
NATIONAL WEATHER SERVICE BISMARCK ND
100 PM CDT TUE OCT 21 2014

NOTE: "FAIR" INDICATES FEW OR NO CLOUDS BELOW 12,000 FEET WITH NO
SIGNIFICANT WEATHER AND/OR OBSTRUCTIONS TO VISIBILITY.


NDZ001>003-009>011-017-211900-
NORTHWEST NORTH DAKOTA

CITY           SKY/WX    TMP DP  RH WIND       PRES   REMARKS
WILLISTON      SUNNY     63  41  44 SE9       29.67F
6HR MIN TEMP:  36; 6HR MAX TEMP:  74;

MINOT          SUNNY     65  40  39 E12       29.72F
MINOT AFB      SUNNY     64  42  44 S13       29.71F
$$

NDZ018>021-031>035-040>046-211900-
SOUTHWEST NORTH DAKOTA

CITY           SKY/WX    TMP DP  RH WIND       PRES   REMARKS
BISMARCK       SUNNY     71  43  36 S15       29.75F
6HR MIN TEMP:  45; 6HR MAX TEMP:  71;

DICKINSON      SUNNY     68  45  43 SE13      29.68F
GARRISON         N/A     64  41  42 SE12      29.72F
6HR MIN TEMP:  41; 6HR MAX TEMP:  64;

HETTINGER ARPT SUNNY     70  44  39 S14       29.73F
$$

NDZ004>008-012>016-024-026-027-054-211900-
NORTHEAST NORTH DAKOTA

CITY           SKY/WX    TMP DP  RH WIND       PRES   REMARKS
GRAND FORKS    SUNNY     60  42  51 S23G33    29.94F
GRND FRKS AFB  SUNNY     60  43  52 SE23G29   29.93F
DEVILS LAKE    SUNNY     63  39  42 SE22G28   29.80F
$$

NDZ022-023-025-028>030-036>039-047>053-211900-
SOUTHEAST NORTH DAKOTA

CITY           SKY/WX    TMP DP  RH WIND       PRES   REMARKS
FARGO          LGT RAIN  63  42  46 SE23G37   29.96F
6HR MIN TEMP:  44; 6HR MAX TEMP:  63; 6HR PCP: TRACE;

JAMESTOWN      SUNNY     67  41  38 SE25G32   29.83F
$$




USA.gov is the U.S. government's official web portal to all federal, state and local government web resources and services.